星链-35462(STARLINK-35462)

导读

STARLINK-35462是美国太空探索技术公司星链星座的一员,于2025年10月3日发射升空。星链项目旨在构建全球卫星互联网星座,为全球偏远及网络欠发达地区提供高速低延迟互联网接入服务,该卫星入轨后将和其他星链卫星组网,进一步拓展星座的全球覆盖能力,提升服务覆盖密度与网络性能。

基本信息
目录编号:
65877
目录名称:
STARLINK-35462
国际标识:
2025-223Z
轨道中心:
EARTH
卫星名称:
星链-35462
卫星全名:
星链-35462(STARLINK-35462)
卫星状态:
在轨 (已飞行253 天)
发射日期:
2025-10-03 UTC
国别 :
美国 (US)
星等 :
--
轨道信息
数据来源 国际轨道数据
星历时间: 2026-06-13T14:34:07+0800
6小时前
查看轨道信息
半长轴: 6853.263km
偏心率: 0.0001064
轨道倾角: 53.157°
近地点辐角 81.798°
升交点赤经 209.930°
平近点角 278.314°
近地点: 474.396km
远地点: 475.856km
周期: 94.104分钟
每日圈数: 15.3023
详细信息
固有亮度:
5
最大亮度:
2.5
卫星平台:
Starlink V1.0
覆盖范围:
全球
运营商:
太空探索技术公司
运营商所在国:
美国
制造商(研发单位):
太空探索技术公司
制造商所在国:
美国
使用方式:
暂无
卫星简介
Starlink 计划是 SpaceX 推出的全球卫星互联网项目,通过发射低轨道卫星,为全球尤其是偏远地区提供高速、低延迟的互联网服务。自 2019 年起,Starlink 已部署数千颗卫星,旨在缩小全球数字鸿沟,推动互联网普及。该项目还为军事、航空等行业提供通信支持,带来广泛经济效益。
2D轨道图
3D轨道图
轨道高度分析图
轨道倾角分析图
轨道综合分析图
查看轨道综合分析图